NWS113 UNNT-UNBB

Flight info

Callsign NWS113
Flight time 0h 32m
Altitude 21000
Route ALIRO
Aircraft B738/M-SDE2E3FGHIRWXY/LB1

Departure

Time 2026-04-26 08:46
Airport Novosibirsk Tolmachevo Airport (UNNT)

Arrival

Time 2026-04-26 09:19
Airport Barnaul Gherman Titov International Airport (UNBB)
Time Latitude Longitude Altitude Speed Heading
2026-04-26 08:23 55.01133 82.67020 355 ft 0 kts 171°
2026-04-26 08:43 55.01129 82.67021 355 ft 2 kts 171°
2026-04-26 08:43 55.01101 82.67030 355 ft 3 kts 155°
2026-04-26 08:43 55.01091 82.67082 355 ft 7 kts 87°
2026-04-26 08:44 55.01101 82.67201 355 ft 12 kts 80°
2026-04-26 08:44 55.01107 82.67358 358 ft 14 kts 91°
2026-04-26 08:44 55.01150 82.67490 358 ft 12 kts 29°
2026-04-26 08:44 55.01228 82.67567 356 ft 13 kts 32°
2026-04-26 08:45 55.01310 82.67656 354 ft 13 kts 32°
2026-04-26 08:45 55.01389 82.67741 354 ft 13 kts 31°
2026-04-26 08:45 55.01471 82.67763 354 ft 11 kts 318°
2026-04-26 08:45 55.01477 82.67622 354 ft 16 kts 261°
2026-04-26 08:46 55.01421 82.67017 354 ft 82 kts 263°
2026-04-26 08:46 55.01304 82.65702 352 ft 137 kts 260°
2026-04-26 08:46 55.01152 82.63797 443 ft 171 kts 260°
2026-04-26 08:46 55.01012 82.61829 1100 ft 164 kts 252°
2026-04-26 08:47 55.00782 82.59920 1664 ft 163 kts 249°
2026-04-26 08:47 55.00568 82.57961 2079 ft 172 kts 252°
2026-04-26 08:47 55.00372 82.55853 2526 ft 179 kts 252°
2026-04-26 08:47 55.00167 82.53719 2945 ft 190 kts 258°
2026-04-26 08:48 55.00441 82.51226 3125 ft 229 kts 289°
2026-04-26 08:48 55.01228 82.48715 3472 ft 249 kts 294°
2026-04-26 08:48 55.02079 82.46056 4125 ft 251 kts 292°
2026-04-26 08:48 55.02867 82.43399 4727 ft 255 kts 290°
2026-04-26 08:49 55.03612 82.40513 5213 ft 264 kts 287°
2026-04-26 08:49 55.04260 82.37663 6206 ft 250 kts 284°
2026-04-26 08:49 55.04820 82.34924 7173 ft 238 kts 281°
2026-04-26 08:49 55.05052 82.32004 6950 ft 252 kts 255°
2026-04-26 08:50 55.04383 82.29172 6936 ft 261 kts 237°
2026-04-26 08:50 55.03542 82.26372 7583 ft 266 kts 243°
2026-04-26 08:50 55.02950 82.23308 8342 ft 269 kts 252°
2026-04-26 08:50 55.02571 82.20161 9082 ft 272 kts 256°
2026-04-26 08:51 55.01937 82.13509 10133 ft 293 kts 257°
2026-04-26 08:51 55.01580 82.09918 10542 ft 307 kts 256°
2026-04-26 08:51 55.01033 82.06284 10892 ft 321 kts 246°
2026-04-26 08:52 54.99816 82.02967 11331 ft 331 kts 225°
2026-04-26 08:52 54.97942 82.00713 12037 ft 335 kts 205°
2026-04-26 08:52 54.95707 81.99528 12819 ft 339 kts 192°
2026-04-26 08:52 54.93383 81.99119 13704 ft 340 kts 185°
2026-04-26 08:53 54.91050 81.99072 14776 ft 335 kts 182°
2026-04-26 08:53 54.88752 81.99141 15884 ft 327 kts 182°
2026-04-26 08:53 54.86548 81.99218 16975 ft 319 kts 182°
2026-04-26 08:53 54.84340 81.99268 17853 ft 317 kts 183°
2026-04-26 08:54 54.82162 81.99284 18549 ft 320 kts 183°
2026-04-26 08:54 54.79916 81.99278 19180 ft 324 kts 184°
2026-04-26 08:54 54.77676 81.99264 19822 ft 328 kts 184°
2026-04-26 08:54 54.75386 81.99249 20501 ft 330 kts 184°
2026-04-26 08:55 54.73098 81.99232 20858 ft 337 kts 184°
2026-04-26 08:55 54.70751 81.99216 20876 ft 335 kts 183°
2026-04-26 08:55 54.68454 81.99358 20875 ft 335 kts 178°
2026-04-26 08:55 54.66141 82.00137 20874 ft 342 kts 166°
2026-04-26 08:56 54.63971 82.01795 20881 ft 348 kts 154°
2026-04-26 08:56 54.61961 82.04207 20879 ft 353 kts 144°
2026-04-26 08:56 54.60187 82.07080 20881 ft 356 kts 136°
2026-04-26 08:56 54.58715 82.10562 20881 ft 363 kts 123°
2026-04-26 08:57 54.57720 82.14532 20881 ft 368 kts 111°
2026-04-26 08:57 54.57030 82.18803 20892 ft 369 kts 107°
2026-04-26 08:57 54.56453 82.23060 20888 ft 369 kts 105°
2026-04-26 08:57 54.55902 82.27402 20891 ft 370 kts 105°
2026-04-26 08:58 54.55345 82.31679 20891 ft 370 kts 107°
2026-04-26 08:58 54.54526 82.35850 20893 ft 364 kts 120°
2026-04-26 08:58 54.53120 82.39437 20901 ft 359 kts 136°
2026-04-26 08:58 54.51315 82.42271 20902 ft 353 kts 147°
2026-04-26 08:59 54.49252 82.44533 20913 ft 350 kts 155°
2026-04-26 08:59 54.47088 82.46305 20904 ft 346 kts 163°
2026-04-26 08:59 54.44761 82.47284 20913 ft 341 kts 177°
2026-04-26 08:59 54.42432 82.47368 20910 ft 337 kts 187°
2026-04-26 09:00 54.40112 82.46807 20908 ft 335 kts 193°
2026-04-26 09:00 54.37863 82.45961 20912 ft 335 kts 196°
2026-04-26 09:00 54.35594 82.44980 20910 ft 335 kts 197°
2026-04-26 09:00 54.33367 82.43975 20907 ft 334 kts 197°
2026-04-26 09:01 54.31120 82.42956 20908 ft 333 kts 197°
2026-04-26 09:01 54.28902 82.41956 20911 ft 334 kts 197°
2026-04-26 09:01 54.26653 82.40951 20913 ft 332 kts 197°
2026-04-26 09:01 54.24439 82.39969 20912 ft 333 kts 197°
2026-04-26 09:02 54.22186 82.38974 20914 ft 335 kts 197°
2026-04-26 09:02 54.19863 82.37949 20913 ft 352 kts 197°
2026-04-26 09:02 54.17464 82.36892 20916 ft 365 kts 197°
2026-04-26 09:02 54.14999 82.35813 20918 ft 364 kts 196°
2026-04-26 09:03 54.12558 82.34869 20918 ft 364 kts 192°
2026-04-26 09:03 54.10019 82.34520 20914 ft 368 kts 180°
2026-04-26 09:03 54.07503 82.35204 20921 ft 374 kts 167°
2026-04-26 09:03 54.05065 82.36846 20919 ft 378 kts 156°
2026-04-26 09:04 54.02825 82.39146 20922 ft 383 kts 148°
2026-04-26 09:04 54.00810 82.42155 20919 ft 388 kts 135°
2026-04-26 09:04 53.99253 82.45885 20719 ft 396 kts 122°
2026-04-26 09:04 53.97980 82.50037 20293 ft 395 kts 118°
2026-04-26 09:05 53.96838 82.54183 19828 ft 391 kts 117°
2026-04-26 09:05 53.95734 82.58380 19344 ft 386 kts 116°
2026-04-26 09:05 53.94664 82.62480 18876 ft 383 kts 116°
2026-04-26 09:05 53.93582 82.66604 18391 ft 380 kts 117°
2026-04-26 09:06 53.92516 82.70623 17922 ft 377 kts 117°
2026-04-26 09:06 53.91431 82.74661 17450 ft 374 kts 118°
2026-04-26 09:06 53.90361 82.78602 16987 ft 371 kts 118°
2026-04-26 09:06 53.89276 82.82559 16523 ft 367 kts 118°
2026-04-26 09:07 53.88197 82.86477 16057 ft 365 kts 118°
2026-04-26 09:07 53.87136 82.90314 15591 ft 362 kts 119°
2026-04-26 09:07 53.86069 82.94161 15133 ft 358 kts 119°
2026-04-26 09:07 53.85026 82.97917 14695 ft 355 kts 119°
2026-04-26 09:08 53.83977 83.01693 14242 ft 352 kts 120°
2026-04-26 09:08 53.82952 83.05375 13811 ft 348 kts 119°
2026-04-26 09:08 53.81920 83.09083 13360 ft 346 kts 120°
2026-04-26 09:08 53.80907 83.12709 12919 ft 343 kts 120°
2026-04-26 09:09 53.79888 83.16356 12482 ft 341 kts 120°
2026-04-26 09:09 53.78889 83.19923 12050 ft 339 kts 120°
2026-04-26 09:09 53.77860 83.23497 11613 ft 334 kts 123°
2026-04-26 09:09 53.76643 83.26742 11215 ft 329 kts 131°
2026-04-26 09:10 53.75241 83.29771 10772 ft 325 kts 134°
2026-04-26 09:10 53.73808 83.32630 10342 ft 321 kts 135°
2026-04-26 09:10 53.72361 83.35482 10010 ft 316 kts 135°
2026-04-26 09:10 53.70964 83.38274 9888 ft 315 kts 135°
2026-04-26 09:11 53.69539 83.41147 9476 ft 320 kts 134°
2026-04-26 09:11 53.68121 83.44035 9040 ft 317 kts 134°
2026-04-26 09:11 53.66746 83.46859 8636 ft 314 kts 134°
2026-04-26 09:11 53.65367 83.49696 8230 ft 310 kts 133°
2026-04-26 09:12 53.64020 83.52466 7849 ft 309 kts 133°
2026-04-26 09:12 53.62655 83.55266 7437 ft 307 kts 133°
2026-04-26 09:12 53.61320 83.58000 7051 ft 305 kts 133°
2026-04-26 09:12 53.59972 83.60756 6660 ft 303 kts 133°
2026-04-26 09:13 53.58650 83.63453 6281 ft 302 kts 133°
2026-04-26 09:13 53.57317 83.66172 5880 ft 298 kts 133°
2026-04-26 09:13 53.56019 83.68819 5598 ft 295 kts 133°
2026-04-26 09:13 53.54707 83.71491 5514 ft 295 kts 133°
2026-04-26 09:14 53.53444 83.74037 5406 ft 275 kts 135°
2026-04-26 09:14 53.52103 83.76144 5257 ft 251 kts 150°
2026-04-26 09:14 53.50606 83.77418 4960 ft 240 kts 162°
2026-04-26 09:14 53.49035 83.78374 4625 ft 239 kts 163°
2026-04-26 09:15 53.47497 83.79324 4322 ft 237 kts 161°
2026-04-26 09:15 53.45956 83.80290 4091 ft 232 kts 165°
2026-04-26 09:15 53.44420 83.80753 3863 ft 224 kts 185°
2026-04-26 09:15 53.43012 83.79835 3640 ft 218 kts 219°
2026-04-26 09:16 53.42144 83.77787 3300 ft 222 kts 244°
2026-04-26 09:16 53.41613 83.75411 3061 ft 212 kts 246°
2026-04-26 09:16 53.41100 83.73161 2767 ft 203 kts 244°
2026-04-26 09:16 53.40583 83.71066 2554 ft 183 kts 243°
2026-04-26 09:17 53.40109 83.69168 2269 ft 171 kts 242°
2026-04-26 09:17 53.39685 83.67455 2087 ft 156 kts 240°
2026-04-26 09:17 53.39278 83.65823 1873 ft 146 kts 241°
2026-04-26 09:17 53.38899 83.64281 1773 ft 143 kts 241°
2026-04-26 09:18 53.38485 83.62683 1586 ft 150 kts 240°
2026-04-26 09:18 53.38081 83.61070 1444 ft 146 kts 242°
2026-04-26 09:18 53.37703 83.59483 1158 ft 146 kts 242°
2026-04-26 09:18 53.37322 83.57938 975 ft 147 kts 243°
2026-04-26 09:19 53.36930 83.56421 873 ft 139 kts 242°
2026-04-26 09:19 53.36566 83.54990 809 ft 116 kts 247°
2026-04-26 09:19 53.36347 83.54098 812 ft 43 kts 252°
2026-04-26 09:19 53.36277 83.53889 813 ft 16 kts 188°
2026-04-26 09:20 53.36183 83.53943 815 ft 10 kts 154°
2026-04-26 09:20 53.36167 83.54098 815 ft 20 kts 67°